Time,TemperatureF,DewpointF,PressureIn,WindDirection,WindDirectionDegrees,WindSpeedMPH,WindSpeedGustMPH,Humidity,HourlyPrecipIn,Conditions,Clouds,dailyrainin,SoftwareType,DateUTC
2013-03-12 00:01:00,56.6,31.0,30.07,NW,317,0.0,-999.0,38,-99.99,,,0.00,weatherlink.com 1.10,2013-03-12 07:01:00,
2013-03-12 00:16:00,56.0,31.0,30.07,NW,317,0.0,-999.0,39,-99.99,,,0.00,weatherlink.com 1.10,2013-03-12 07:16:00,
2013-03-12 00:31:00,55.3,31.0,30.07,NW,317,0.0,-999.0,40,-99.99,,,0.00,weatherlink.com 1.10,2013-03-12 07:31:00,
2013-03-12 00:46:00,54.6,31.0,30.07,NW,317,0.0,-999.0,41,-99.99,,,0.00,weatherlink.com 1.10,2013-03-12 07:46:00,
2013-03-12 01:01:00,54.1,31.0,30.06,NW,317,0.0,-999.0,42,-99.99,,,0.00,weatherlink.com 1.10,2013-03-12 08:01:00,
2013-03-12 01:16:00,54.0,31.0,30.06,NW,317,0.0,-999.0,42,-99.99,,,0.00,weatherlink.com 1.10,2013-03-12 08:16:00,
2013-03-12 01:31:00,54.0,31.0,30.06,NW,317,0.0,-999.0,42,-99.99,,,0.00,weatherlink.com 1.10,2013-03-12 08:31:00,
2013-03-12 01:46:00,53.7,31.0,30.06,NW,317,0.0,-999.0,42,-99.99,,,0.00,weatherlink.com 1.10,2013-03-12 08:46:00,
2013-03-12 02:01:00,52.6,30.0,30.07,NW,317,0.0,-999.0,43,-99.99,,,0.00,weatherlink.com 1.10,2013-03-12 09:01:00,
2013-03-12 02:16:00,52.2,31.0,30.07,NW,317,0.0,-999.0,44,-99.99,,,0.00,weatherlink.com 1.10,2013-03-12 09:16:00,
2013-03-12 02:32:00,52.0,31.0,30.06,NW,317,0.0,-999.0,44,-99.99,,,0.00,weatherlink.com 1.10,2013-03-12 09:32:00,
2013-03-12 02:46:00,51.9,30.0,30.06,NW,317,0.0,-999.0,44,-99.99,,,0.00,weatherlink.com 1.10,2013-03-12 09:46:00,
2013-03-12 03:02:00,51.7,31.0,30.06,NW,317,0.0,-999.0,45,-99.99,,,0.00,weatherlink.com 1.10,2013-03-12 10:02:00,
2013-03-12 03:17:00,51.2,31.0,30.05,NW,317,0.0,-999.0,46,-99.99,,,0.00,weatherlink.com 1.10,2013-03-12 10:17:00,
2013-03-12 03:32:00,50.7,30.0,30.05,NW,317,0.0,-999.0,46,-99.99,,,0.00,weatherlink.com 1.10,2013-03-12 10:32:00,
2013-03-12 03:47:00,50.3,31.0,30.05,NW,317,0.0,-999.0,47,-99.99,,,0.00,weatherlink.com 1.10,2013-03-12 10:47:00,
2013-03-12 04:02:00,50.1,30.0,30.05,NW,317,0.0,-999.0,47,-99.99,,,0.00,weatherlink.com 1.10,2013-03-12 11:02:00,
2013-03-12 04:17:00,49.9,31.0,30.05,NW,317,0.0,-999.0,48,-99.99,,,0.00,weatherlink.com 1.10,2013-03-12 11:17:00,
2013-03-12 04:32:00,49.4,31.0,30.05,NW,317,1.0,-999.0,49,-99.99,,,0.00,weatherlink.com 1.10,2013-03-12 11:32:00,
2013-03-12 04:47:00,48.7,31.0,30.05,NW,317,0.0,-999.0,50,-99.99,,,0.00,weatherlink.com 1.10,2013-03-12 11:47:00,
2013-03-12 05:02:00,48.1,31.0,30.05,NW,317,0.0,-999.0,51,-99.99,,,0.00,weatherlink.com 1.10,2013-03-12 12:02:00,
2013-03-12 05:17:00,48.0,30.0,30.06,NW,317,0.0,-999.0,51,-99.99,,,0.00,weatherlink.com 1.10,2013-03-12 12:17:00,
2013-03-12 05:32:00,47.9,30.0,30.06,NW,317,1.0,-999.0,51,-99.99,,,0.00,weatherlink.com 1.10,2013-03-12 12:32:00,
2013-03-12 05:47:00,47.7,30.0,30.06,NW,317,0.0,-999.0,51,-99.99,,,0.00,weatherlink.com 1.10,2013-03-12 12:47:00,
2013-03-12 06:02:00,47.4,30.0,30.06,NW,317,0.0,-999.0,52,-99.99,,,0.00,weatherlink.com 1.10,2013-03-12 13:02:00,
2013-03-12 06:17:00,46.9,30.0,30.07,NW,317,0.0,-999.0,53,-99.99,,,0.00,weatherlink.com 1.10,2013-03-12 13:17:00,
2013-03-12 06:32:00,45.8,30.0,30.07,NW,317,0.0,-999.0,55,-99.99,,,0.00,weatherlink.com 1.10,2013-03-12 13:32:00,
2013-03-12 06:47:00,45.9,30.0,30.08,NW,317,0.0,-999.0,55,-99.99,,,0.00,weatherlink.com 1.10,2013-03-12 13:47:00,
2013-03-12 07:03:00,45.6,30.0,30.08,NW,317,0.0,-999.0,55,-99.99,,,0.00,weatherlink.com 1.10,2013-03-12 14:03:00,
2013-03-12 07:17:00,45.4,30.0,30.09,NW,317,0.0,-999.0,56,-99.99,,,0.00,weatherlink.com 1.10,2013-03-12 14:17:00,
2013-03-12 07:33:00,46.7,31.0,30.09,NW,317,0.0,-999.0,55,-99.99,,,0.00,weatherlink.com 1.10,2013-03-12 14:33:00,
2013-03-12 07:47:00,49.0,32.0,30.09,NW,317,0.0,-999.0,52,-99.99,,,0.00,weatherlink.com 1.10,2013-03-12 14:47:00,
2013-03-12 08:02:00,51.8,32.0,30.10,NW,317,0.0,-999.0,48,-99.99,,,0.00,weatherlink.com 1.10,2013-03-12 15:02:00,
2013-03-12 08:17:00,54.8,31.0,30.11,NW,317,0.0,-999.0,41,-99.99,,,0.00,weatherlink.com 1.10,2013-03-12 15:17:00,
2013-03-12 08:32:00,57.0,31.0,30.11,NW,317,0.0,-999.0,38,-99.99,,,0.00,weatherlink.com 1.10,2013-03-12 15:32:00,
2013-03-12 08:47:00,60.0,32.0,30.11,NW,317,0.0,-999.0,35,-99.99,,,0.00,weatherlink.com 1.10,2013-03-12 15:47:00,
2013-03-12 09:03:00,64.0,32.0,30.11,NW,317,0.0,-999.0,30,-99.99,,,0.00,weatherlink.com 1.10,2013-03-12 16:03:00,
2013-03-12 09:18:00,65.3,31.0,30.12,NW,317,0.0,-999.0,28,-99.99,,,0.00,weatherlink.com 1.10,2013-03-12 16:18:00,
2013-03-12 09:33:00,66.8,31.0,30.12,NW,317,0.0,-999.0,26,-99.99,,,0.00,weatherlink.com 1.10,2013-03-12 16:33:00,
2013-03-12 09:48:00,67.9,31.0,30.12,NW,317,0.0,-999.0,25,-99.99,,,0.00,weatherlink.com 1.10,2013-03-12 16:48:00,
2013-03-12 10:03:00,69.6,31.0,30.12,NW,317,0.0,-999.0,24,-99.99,,,0.00,weatherlink.com 1.10,2013-03-12 17:03:00,
2013-03-12 10:18:00,70.9,30.0,30.12,NW,317,2.0,-999.0,22,-99.99,,,0.00,weatherlink.com 1.10,2013-03-12 17:18:00,
2013-03-12 10:33:00,71.0,29.0,30.12,WNW,301,2.0,-999.0,21,-99.99,,,0.00,weatherlink.com 1.10,2013-03-12 17:33:00,
2013-03-12 10:49:00,72.1,30.0,30.12,WNW,296,4.0,-999.0,21,-99.99,,,0.00,weatherlink.com 1.10,2013-03-12 17:49:00,
2013-03-12 11:03:00,73.2,27.0,30.12,NW,321,4.0,-999.0,18,-99.99,,,0.00,weatherlink.com 1.10,2013-03-12 18:03:00,
2013-03-12 11:18:00,74.2,29.0,30.12,NW,318,4.0,-999.0,19,-99.99,,,0.00,weatherlink.com 1.10,2013-03-12 18:18:00,
2013-03-12 11:33:00,75.0,29.0,30.11,NW,304,3.0,-999.0,18,-99.99,,,0.00,weatherlink.com 1.10,2013-03-12 18:33:00,
2013-03-12 11:50:00,75.7,28.0,30.11,WNW,303,0.0,-999.0,17,-99.99,,,0.00,weatherlink.com 1.10,2013-03-12 18:50:00,
2013-03-12 12:05:00,76.0,29.0,30.11,WNW,297,1.0,-999.0,18,-99.99,,,0.00,weatherlink.com 1.10,2013-03-12 19:05:00,
2013-03-12 12:19:00,76.8,29.0,30.10,WNW,297,5.0,-999.0,17,-99.99,,,0.00,weatherlink.com 1.10,2013-03-12 19:19:00,
2013-03-12 12:34:00,77.2,29.0,30.09,North,9,2.0,-999.0,17,-99.99,,,0.00,weatherlink.com 1.10,2013-03-12 19:34:00,
2013-03-12 12:49:00,78.1,30.0,30.09,North,5,7.0,-999.0,17,-99.99,,,0.00,weatherlink.com 1.10,2013-03-12 19:49:00,
2013-03-12 13:04:00,79.1,29.0,30.08,WNW,303,1.0,-999.0,16,-99.99,,,0.00,weatherlink.com 1.10,2013-03-12 20:04:00,
2013-03-12 13:19:00,79.3,29.0,30.07,North,5,8.0,-999.0,16,-99.99,,,0.00,weatherlink.com 1.10,2013-03-12 20:19:00,
2013-03-12 13:34:00,80.1,30.0,30.07,NW,312,4.0,-999.0,16,-99.99,,,0.00,weatherlink.com 1.10,2013-03-12 20:34:00,
2013-03-12 13:49:00,80.5,29.0,30.06,NW,307,2.0,-999.0,15,-99.99,,,0.00,weatherlink.com 1.10,2013-03-12 20:49:00,
2013-03-12 14:05:00,80.0,28.0,30.05,NNW,329,6.0,-999.0,15,-99.99,,,0.00,weatherlink.com 1.10,2013-03-12 21:05:00,
2013-03-12 14:20:00,81.0,29.0,30.05,NNW,333,3.0,-999.0,15,-99.99,,,0.00,weatherlink.com 1.10,2013-03-12 21:20:00,
2013-03-12 14:35:00,82.0,28.0,30.04,WNW,290,4.0,-999.0,14,-99.99,,,0.00,weatherlink.com 1.10,2013-03-12 21:35:00,
2013-03-12 14:49:00,81.5,28.0,30.04,NNW,329,0.0,-999.0,14,-99.99,,,0.00,weatherlink.com 1.10,2013-03-12 21:49:00,
2013-03-12 15:04:00,81.8,28.0,30.03,NNW,348,1.0,-999.0,14,-99.99,,,0.00,weatherlink.com 1.10,2013-03-12 22:04:00,
2013-03-12 15:20:00,82.4,29.0,30.03,WNW,288,3.0,-999.0,14,-99.99,,,0.00,weatherlink.com 1.10,2013-03-12 22:20:00,
2013-03-12 15:35:00,81.5,28.0,30.02,NW,305,4.0,-999.0,14,-99.99,,,0.00,weatherlink.com 1.10,2013-03-12 22:35:00,
2013-03-12 15:50:00,82.1,28.0,30.02,NNW,337,6.0,-999.0,14,-99.99,,,0.00,weatherlink.com 1.10,2013-03-12 22:50:00,
2013-03-12 16:05:00,82.5,29.0,30.02,NW,313,4.0,-999.0,14,-99.99,,,0.00,weatherlink.com 1.10,2013-03-12 23:05:00,
2013-03-12 16:21:00,82.8,27.0,30.02,NW,312,2.0,-999.0,13,-99.99,,,0.00,weatherlink.com 1.10,2013-03-12 23:21:00,
2013-03-12 16:35:00,82.7,27.0,30.01,WNW,295,3.0,-999.0,13,-99.99,,,0.00,weatherlink.com 1.10,2013-03-12 23:35:00,
2013-03-12 16:51:00,82.1,27.0,30.01,NNW,327,1.0,-999.0,13,-99.99,,,0.00,weatherlink.com 1.10,2013-03-12 23:51:00,
2013-03-12 17:06:00,83.0,27.0,30.01,NW,313,1.0,-999.0,13,-99.99,,,0.00,weatherlink.com 1.10,2013-03-13 00:06:00,
2013-03-12 17:21:00,82.5,27.0,30.01,NW,304,1.0,-999.0,13,-99.99,,,0.00,weatherlink.com 1.10,2013-03-13 00:21:00,
2013-03-12 17:36:00,82.2,27.0,30.01,NW,313,2.0,-999.0,13,-99.99,,,0.00,weatherlink.com 1.10,2013-03-13 00:36:00,
2013-03-12 17:51:00,81.5,28.0,30.01,NW,309,0.0,-999.0,14,-99.99,,,0.00,weatherlink.com 1.10,2013-03-13 00:51:00,
2013-03-12 18:06:00,81.0,27.0,30.01,NW,312,4.0,-999.0,14,-99.99,,,0.00,weatherlink.com 1.10,2013-03-13 01:06:00,
2013-03-12 18:22:00,80.0,27.0,30.02,NW,313,0.0,-999.0,14,-99.99,,,0.00,weatherlink.com 1.10,2013-03-13 01:22:00,
2013-03-12 18:36:00,79.1,28.0,30.02,NW,313,0.0,-999.0,15,-99.99,,,0.00,weatherlink.com 1.10,2013-03-13 01:36:00,
2013-03-12 18:52:00,77.3,29.0,30.02,NW,313,0.0,-999.0,17,-99.99,,,0.00,weatherlink.com 1.10,2013-03-13 01:52:00,
2013-03-12 19:36:00,70.1,31.0,30.03,NW,313,0.0,-999.0,23,-99.99,,,0.00,weatherlink.com 1.10,2013-03-13 02:36:00,
2013-03-12 20:06:00,66.7,30.0,30.04,NW,313,0.0,-999.0,25,-99.99,,,0.00,weatherlink.com 1.10,2013-03-13 03:06:00,
2013-03-12 20:22:00,66.7,31.0,30.04,NW,313,0.0,-999.0,26,-99.99,,,0.00,weatherlink.com 1.10,2013-03-13 03:22:00,
2013-03-12 20:37:00,66.2,31.0,30.05,NW,313,0.0,-999.0,27,-99.99,,,0.00,weatherlink.com 1.10,2013-03-13 03:37:00,
2013-03-12 20:52:00,65.4,31.0,30.05,NW,313,0.0,-999.0,28,-99.99,,,0.00,weatherlink.com 1.10,2013-03-13 03:52:00,
2013-03-12 21:07:00,65.1,32.0,30.05,NW,313,0.0,-999.0,29,-99.99,,,0.00,weatherlink.com 1.10,2013-03-13 04:07:00,
2013-03-12 21:22:00,64.9,32.0,30.06,NW,313,0.0,-999.0,29,-99.99,,,0.00,weatherlink.com 1.10,2013-03-13 04:22:00,
2013-03-12 21:37:00,64.3,31.0,30.06,NW,313,0.0,-999.0,29,-99.99,,,0.00,weatherlink.com 1.10,2013-03-13 04:37:00,
2013-03-12 21:52:00,63.2,31.0,30.07,NW,313,0.0,-999.0,30,-99.99,,,0.00,weatherlink.com 1.10,2013-03-13 04:52:00,
2013-03-12 22:22:00,61.2,32.0,30.08,NW,313,0.0,-999.0,33,-99.99,,,0.00,weatherlink.com 1.10,2013-03-13 05:22:00,
2013-03-12 22:37:00,61.2,31.0,30.08,NW,313,0.0,-999.0,32,-99.99,,,0.00,weatherlink.com 1.10,2013-03-13 05:37:00,
2013-03-12 22:52:00,61.1,32.0,30.08,NW,313,0.0,-999.0,33,-99.99,,,0.00,weatherlink.com 1.10,2013-03-13 05:52:00,
2013-03-12 23:07:00,60.2,31.0,30.09,NW,313,0.0,-999.0,33,-99.99,,,0.00,weatherlink.com 1.10,2013-03-13 06:07:00,
2013-03-12 23:22:00,59.9,31.0,30.09,NW,313,0.0,-999.0,34,-99.99,,,0.00,weatherlink.com 1.10,2013-03-13 06:22:00,
2013-03-12 23:37:00,59.9,32.0,30.09,NW,313,0.0,-999.0,35,-99.99,,,0.00,weatherlink.com 1.10,2013-03-13 06:37:00,
2013-03-12 23:52:00,59.5,32.0,30.09,NW,313,0.0,-999.0,35,-99.99,,,0.00,weatherlink.com 1.10,2013-03-13 06:52:00,